Time,TemperatureF,DewpointF,PressureIn,WindDirection,WindDirectionDegrees,WindSpeedMPH,WindSpeedGustMPH,Humidity,HourlyPrecipIn,Conditions,Clouds,dailyrainin,SoftwareType,DateUTC
2013-06-24 00:00:00,68.9,65.2,30.12,South,180,0.0,0.0,88,0.00,,,0.00,Wunderground v.1.15,2013-06-24 04:00:00,
2013-06-24 00:05:00,68.9,65.2,30.13,South,180,0.0,0.0,88,0.00,,,0.00,Wunderground v.1.15,2013-06-24 04:05:00,
2013-06-24 00:10:00,68.9,65.2,30.13,South,180,0.0,0.0,88,0.00,,,0.00,Wunderground v.1.15,2013-06-24 04:10:00,
2013-06-24 00:15:00,68.9,65.2,30.13,South,180,0.0,0.0,88,0.00,,,0.00,Wunderground v.1.15,2013-06-24 04:15:00,
2013-06-24 00:20:00,68.9,65.2,30.13,South,180,0.0,0.0,88,0.00,,,0.00,Wunderground v.1.15,2013-06-24 04:20:00,
2013-06-24 00:25:00,68.9,65.2,30.13,South,180,0.0,0.0,88,0.00,,,0.00,Wunderground v.1.15,2013-06-24 04:25:00,
2013-06-24 00:30:00,68.9,65.2,30.13,South,180,0.0,0.0,88,0.00,,,0.00,Wunderground v.1.15,2013-06-24 04:30:00,
2013-06-24 00:35:00,68.9,65.5,30.13,South,180,0.0,0.0,89,0.00,,,0.00,Wunderground v.1.15,2013-06-24 04:35:00,
2013-06-24 00:40:00,68.9,65.5,30.13,South,180,0.0,0.0,89,0.00,,,0.00,Wunderground v.1.15,2013-06-24 04:40:00,
2013-06-24 00:50:00,68.9,65.5,30.13,South,180,0.0,0.0,89,0.00,,,0.00,Wunderground v.1.15,2013-06-24 04:50:00,
2013-06-24 01:00:00,68.9,64.9,30.13,South,180,0.0,0.0,87,0.00,,,0.00,Wunderground v.1.15,2013-06-24 05:00:00,
2013-06-24 01:10:00,69.1,63.7,30.13,South,180,0.0,0.0,83,0.00,,,0.00,Wunderground v.1.15,2013-06-24 05:10:00,
2013-06-24 01:20:00,69.6,63.2,30.12,South,180,0.0,0.0,80,0.00,,,0.00,Wunderground v.1.15,2013-06-24 05:20:00,
2013-06-24 01:30:00,69.6,62.8,30.13,South,180,0.0,0.0,79,0.00,,,0.00,Wunderground v.1.15,2013-06-24 05:30:00,
2013-06-24 01:45:00,69.4,63.3,30.12,South,180,0.0,0.0,81,0.00,,,0.00,Wunderground v.1.15,2013-06-24 05:45:00,
2013-06-24 01:50:00,69.1,63.7,30.11,South,180,0.0,0.0,83,0.00,,,0.00,Wunderground v.1.15,2013-06-24 05:50:00,
2013-06-24 02:00:00,68.4,63.7,30.12,South,180,0.0,0.0,85,0.00,,,0.00,Wunderground v.1.15,2013-06-24 06:00:00,
2013-06-24 02:05:00,68.3,64.3,30.11,South,180,0.0,0.0,87,0.00,,,0.00,Wunderground v.1.15,2013-06-24 06:05:00,
2013-06-24 02:15:00,67.4,64.0,30.11,South,180,0.0,0.0,89,0.00,,,0.00,Wunderground v.1.15,2013-06-24 06:15:00,
2013-06-24 02:20:00,67.1,64.1,30.11,South,180,0.0,0.0,90,0.00,,,0.00,Wunderground v.1.15,2013-06-24 06:20:00,
2013-06-24 02:30:00,66.6,63.6,30.12,South,180,0.0,0.0,90,0.00,,,0.00,Wunderground v.1.15,2013-06-24 06:30:00,
2013-06-24 02:40:00,66.1,63.4,30.11,South,180,0.0,0.0,91,0.00,,,0.00,Wunderground v.1.15,2013-06-24 06:40:00,
2013-06-24 02:50:00,65.6,63.2,30.12,South,180,0.0,0.0,92,0.00,,,0.00,Wunderground v.1.15,2013-06-24 06:50:00,
2013-06-24 03:00:00,65.3,63.2,30.11,South,180,0.0,0.0,93,0.00,,,0.00,Wunderground v.1.15,2013-06-24 07:00:00,
2013-06-24 03:15:00,64.7,62.9,30.11,South,180,0.0,0.0,94,0.00,,,0.00,Wunderground v.1.15,2013-06-24 07:15:00,
2013-06-24 03:20:00,64.5,62.7,30.11,South,180,0.0,0.0,94,0.00,,,0.00,Wunderground v.1.15,2013-06-24 07:20:00,
2013-06-24 03:35:00,64.2,62.4,30.11,South,180,0.0,0.0,94,0.00,,,0.00,Wunderground v.1.15,2013-06-24 07:35:00,
2013-06-24 03:45:00,63.9,62.1,30.11,South,180,0.0,0.0,94,0.00,,,0.00,Wunderground v.1.15,2013-06-24 07:45:00,
2013-06-24 03:50:00,63.7,62.2,30.11,South,180,0.0,0.0,95,0.00,,,0.00,Wunderground v.1.15,2013-06-24 07:50:00,
2013-06-24 04:00:00,63.4,61.9,30.11,South,180,0.0,0.0,95,0.00,,,0.00,Wunderground v.1.15,2013-06-24 08:00:00,
2013-06-24 04:10:00,63.4,61.9,30.11,South,180,0.0,0.0,95,0.00,,,0.00,Wunderground v.1.15,2013-06-24 08:10:00,
2013-06-24 04:25:00,63.4,62.2,30.11,South,180,0.0,0.0,96,0.00,,,0.00,Wunderground v.1.15,2013-06-24 08:25:00,
2013-06-24 04:35:00,63.7,62.5,30.11,South,180,0.0,0.0,96,0.00,,,0.00,Wunderground v.1.15,2013-06-24 08:35:00,
2013-06-24 04:45:00,63.7,62.5,30.11,South,180,0.0,0.0,96,0.00,,,0.00,Wunderground v.1.15,2013-06-24 08:45:00,
2013-06-24 04:50:00,63.7,62.5,30.11,South,180,0.0,0.0,96,0.00,,,0.00,Wunderground v.1.15,2013-06-24 08:50:00,
2013-06-24 05:00:00,63.7,62.2,30.11,South,180,0.0,0.0,95,0.00,,,0.00,Wunderground v.1.15,2013-06-24 09:00:00,
2013-06-24 05:05:00,63.5,62.0,30.11,South,180,0.0,0.0,95,0.00,,,0.00,Wunderground v.1.15,2013-06-24 09:05:00,
2013-06-24 05:15:00,63.4,61.9,30.12,South,180,0.0,0.0,95,0.00,,,0.00,Wunderground v.1.15,2013-06-24 09:15:00,
2013-06-24 05:25:00,63.1,61.9,30.12,South,180,0.0,0.0,96,0.00,,,0.00,Wunderground v.1.15,2013-06-24 09:25:00,
2013-06-24 05:40:00,62.9,61.7,30.12,South,180,0.0,0.0,96,0.00,,,0.00,Wunderground v.1.15,2013-06-24 09:40:00,
2013-06-24 05:45:00,62.9,61.7,30.12,South,180,0.0,0.0,96,0.00,,,0.00,Wunderground v.1.15,2013-06-24 09:45:00,
2013-06-24 05:55:00,62.7,61.5,30.12,South,180,0.0,0.0,96,0.00,,,0.00,Wunderground v.1.15,2013-06-24 09:55:00,
2013-06-24 06:10:00,62.6,61.4,30.12,South,180,0.0,0.0,96,0.00,,,0.00,Wunderground v.1.15,2013-06-24 10:10:00,
2013-06-24 06:15:00,62.4,61.2,30.12,South,180,0.0,0.0,96,0.00,,,0.00,Wunderground v.1.15,2013-06-24 10:15:00,
2013-06-24 06:25:00,62.3,61.4,30.12,South,180,0.0,0.0,97,0.00,,,0.00,Wunderground v.1.15,2013-06-24 10:25:00,
2013-06-24 06:30:00,62.3,61.4,30.13,South,180,0.0,0.0,97,0.00,,,0.00,Wunderground v.1.15,2013-06-24 10:30:00,
2013-06-24 06:40:00,62.4,61.5,30.12,South,180,0.0,0.0,97,0.00,,,0.00,Wunderground v.1.15,2013-06-24 10:40:00,
2013-06-24 06:50:00,62.6,62.0,30.13,South,180,0.0,0.0,98,0.00,,,0.00,Wunderground v.1.15,2013-06-24 10:50:00,
2013-06-24 07:00:00,62.9,62.3,30.13,South,180,0.0,0.0,98,0.00,,,0.00,Wunderground v.1.15,2013-06-24 11:00:00,
2013-06-24 07:10:00,63.4,62.8,30.13,South,180,0.0,0.0,98,0.00,,,0.00,Wunderground v.1.15,2013-06-24 11:10:00,
2013-06-24 07:20:00,63.7,62.8,30.13,South,180,0.0,0.0,97,0.00,,,0.00,Wunderground v.1.15,2013-06-24 11:20:00,
2013-06-24 07:35:00,64.3,63.4,30.14,South,180,0.0,0.0,97,0.00,,,0.00,Wunderground v.1.15,2013-06-24 11:35:00,
2013-06-24 07:45:00,64.7,63.5,30.13,South,180,0.0,0.0,96,0.00,,,0.00,Wunderground v.1.15,2013-06-24 11:45:00,
2013-06-24 07:55:00,65.2,64.0,30.14,South,180,0.0,0.0,96,0.00,,,0.00,Wunderground v.1.15,2013-06-24 11:55:00,
2013-06-24 08:00:00,65.5,64.3,30.14,South,180,0.0,0.0,96,0.00,,,0.00,Wunderground v.1.15,2013-06-24 12:00:00,
2013-06-24 08:10:00,66.3,64.8,30.14,South,180,0.0,0.0,95,0.00,,,0.00,Wunderground v.1.15,2013-06-24 12:10:00,
2013-06-24 08:15:00,66.9,64.8,30.15,South,180,0.0,0.0,93,0.00,,,0.00,Wunderground v.1.15,2013-06-24 12:15:00,
2013-06-24 08:20:00,67.4,65.0,30.15,South,180,0.0,0.0,92,0.00,,,0.00,Wunderground v.1.15,2013-06-24 12:20:00,
2013-06-24 08:30:00,68.1,65.1,30.15,South,180,0.0,0.0,90,0.00,,,0.00,Wunderground v.1.15,2013-06-24 12:30:00,
2013-06-24 08:40:00,68.6,65.5,30.15,South,180,0.0,0.0,90,0.00,,,0.00,Wunderground v.1.15,2013-06-24 12:40:00,
2013-06-24 08:50:00,69.3,66.2,30.15,South,180,0.0,0.0,90,0.00,,,0.00,Wunderground v.1.15,2013-06-24 12:50:00,
2013-06-24 09:00:00,69.6,65.9,30.16,South,180,0.0,0.0,88,0.00,,,0.00,Wunderground v.1.15,2013-06-24 13:00:00,
2013-06-24 09:10:00,70.3,65.6,30.16,South,180,0.0,0.0,85,0.00,,,0.00,Wunderground v.1.15,2013-06-24 13:10:00,
2013-06-24 09:20:00,70.3,64.9,30.16,NW,319,0.0,0.0,83,0.00,,,0.00,Wunderground v.1.15,2013-06-24 13:20:00,
2013-06-24 09:30:00,70.8,66.1,30.16,NW,319,0.0,0.0,85,0.00,,,0.00,Wunderground v.1.15,2013-06-24 13:30:00,
2013-06-24 09:35:00,70.9,65.5,30.16,NW,319,0.0,0.0,83,0.00,,,0.00,Wunderground v.1.15,2013-06-24 13:35:00,
2013-06-24 09:40:00,71.5,66.4,30.16,NW,319,0.0,0.0,84,0.00,,,0.00,Wunderground v.1.15,2013-06-24 13:40:00,
2013-06-24 09:50:00,72.0,66.2,30.16,NW,325,0.0,0.0,82,0.00,,,0.00,Wunderground v.1.15,2013-06-24 13:50:00,
2013-06-24 10:00:00,72.5,67.0,30.16,NW,325,0.0,0.0,83,0.00,,,0.00,Wunderground v.1.15,2013-06-24 14:00:00,
2013-06-24 10:06:00,72.7,66.5,30.16,NW,325,0.0,1.0,81,0.00,,,0.00,Wunderground v.1.15,2013-06-24 14:06:00,
2013-06-24 10:15:00,73.0,66.5,30.16,NW,325,0.0,0.0,80,0.00,,,0.00,Wunderground v.1.15,2013-06-24 14:15:00,
2013-06-24 10:20:00,73.0,66.1,30.17,NW,325,0.0,0.0,79,0.00,,,0.00,Wunderground v.1.15,2013-06-24 14:20:00,
2013-06-24 10:25:00,73.0,66.1,30.17,NW,325,0.0,0.0,79,0.00,,,0.00,Wunderground v.1.15,2013-06-24 14:25:00,
2013-06-24 10:35:00,73.3,66.8,30.17,NW,325,0.0,0.0,80,0.00,,,0.00,Wunderground v.1.15,2013-06-24 14:35:00,
2013-06-24 10:40:00,73.5,66.9,30.17,NW,325,0.0,0.0,80,0.00,,,0.00,Wunderground v.1.15,2013-06-24 14:40:00,
2013-06-24 11:00:00,73.9,67.3,30.17,South,172,0.0,0.0,80,0.00,,,0.00,Wunderground v.1.15,2013-06-24 15:00:00,
2013-06-24 11:10:00,74.7,67.8,30.17,South,181,1.0,5.0,79,0.00,,,0.00,Wunderground v.1.15,2013-06-24 15:10:00,
2013-06-24 11:15:00,74.6,66.9,30.17,South,181,1.0,5.0,77,0.00,,,0.00,Wunderground v.1.15,2013-06-24 15:15:00,
2013-06-24 11:25:00,75.3,68.0,30.17,South,181,0.0,2.0,78,0.00,,,0.00,Wunderground v.1.15,2013-06-24 15:25:00,
2013-06-24 11:35:00,75.6,67.9,30.17,South,181,0.0,0.0,77,0.00,,,0.00,Wunderground v.1.15,2013-06-24 15:35:00,
2013-06-24 11:40:00,75.6,67.1,30.16,South,181,1.0,1.0,75,0.00,,,0.00,Wunderground v.1.15,2013-06-24 15:40:00,
2013-06-24 11:50:00,76.3,67.8,30.16,SSE,155,0.0,0.0,75,0.00,,,0.00,Wunderground v.1.15,2013-06-24 15:50:00,
2013-06-24 12:10:00,77.6,69.0,30.16,South,188,0.0,1.0,75,0.00,,,0.00,Wunderground v.1.15,2013-06-24 16:10:00,
2013-06-24 12:25:00,78.6,68.0,30.15,SSW,200,2.0,5.0,70,0.00,,,0.00,Wunderground v.1.15,2013-06-24 16:25:00,
2013-06-24 12:30:00,78.8,69.4,30.15,SSW,201,4.0,7.0,73,0.00,,,0.00,Wunderground v.1.15,2013-06-24 16:30:00,
2013-06-24 12:40:00,78.5,68.3,30.14,SSW,213,3.0,4.0,71,0.00,,,0.00,Wunderground v.1.15,2013-06-24 16:40:00,
2013-06-24 12:50:00,78.8,69.0,30.13,South,188,3.0,7.0,72,0.00,,,0.00,Wunderground v.1.15,2013-06-24 16:50:00,
2013-06-24 13:00:00,79.0,68.8,30.14,SW,217,3.0,3.0,71,0.00,,,0.00,Wunderground v.1.15,2013-06-24 17:00:00,
2013-06-24 13:05:00,78.6,69.2,30.13,SSW,207,3.0,4.0,73,0.00,,,0.00,Wunderground v.1.15,2013-06-24 17:05:00,
2013-06-24 13:15:00,79.0,67.1,30.13,WSW,238,2.0,5.0,67,0.00,,,0.00,Wunderground v.1.15,2013-06-24 17:15:00,
2013-06-24 13:20:00,78.6,69.2,30.13,SSW,196,3.0,3.0,73,0.00,,,0.00,Wunderground v.1.15,2013-06-24 17:20:00,
2013-06-24 13:25:00,79.2,69.4,30.12,South,190,3.0,3.0,72,0.00,,,0.00,Wunderground v.1.15,2013-06-24 17:25:00,
2013-06-24 13:30:00,79.4,68.3,30.12,SSW,210,3.0,3.0,69,0.00,,,0.00,Wunderground v.1.15,2013-06-24 17:30:00,
2013-06-24 13:40:00,79.6,68.1,30.11,SSW,194,1.0,1.0,68,0.00,,,0.00,Wunderground v.1.15,2013-06-24 17:40:00,
2013-06-24 13:50:00,79.0,68.0,30.11,SSW,200,2.0,2.0,69,0.00,,,0.00,Wunderground v.1.15,2013-06-24 17:50:00,
2013-06-24 14:00:00,79.4,68.3,30.11,SSW,200,1.0,1.0,69,0.00,,,0.00,Wunderground v.1.15,2013-06-24 18:00:00,
2013-06-24 14:10:00,78.5,67.9,30.10,SSW,196,1.0,1.0,70,0.00,,,0.00,Wunderground v.1.15,2013-06-24 18:10:00,
2013-06-24 14:25:00,79.2,67.7,30.09,SSW,201,2.0,5.0,68,0.00,,,0.00,Wunderground v.1.15,2013-06-24 18:25:00,
2013-06-24 14:35:00,79.4,68.8,30.09,SSW,202,1.0,2.0,70,0.00,,,0.00,Wunderground v.1.15,2013-06-24 18:35:00,
2013-06-24 14:40:00,80.1,68.2,30.09,SW,236,1.0,1.0,67,0.00,,,0.00,Wunderground v.1.15,2013-06-24 18:40:00,
2013-06-24 14:50:00,80.7,70.4,30.08,South,180,1.0,1.0,71,0.00,,,0.00,Wunderground v.1.15,2013-06-24 18:50:00,
2013-06-24 15:00:00,81.1,68.7,30.08,SW,217,2.0,2.0,66,0.00,,,0.00,Wunderground v.1.15,2013-06-24 19:00:00,
2013-06-24 15:10:00,81.4,68.5,30.07,SSW,195,2.0,4.0,65,0.00,,,0.00,Wunderground v.1.15,2013-06-24 19:10:00,
2013-06-24 15:20:00,81.2,70.9,30.06,SSW,202,2.0,2.0,71,0.00,,,0.00,Wunderground v.1.15,2013-06-24 19:20:00,
2013-06-24 15:30:00,80.9,67.6,30.06,WSW,258,1.0,1.0,64,0.00,,,0.00,Wunderground v.1.15,2013-06-24 19:30:00,
2013-06-24 15:40:00,80.7,67.8,30.06,WSW,244,1.0,1.0,65,0.00,,,0.00,Wunderground v.1.15,2013-06-24 19:40:00,
2013-06-24 15:50:00,80.3,68.3,30.06,SW,236,1.0,1.0,67,0.00,,,0.00,Wunderground v.1.15,2013-06-24 19:50:00,
2013-06-24 16:00:00,81.1,68.7,30.06,WSW,253,2.0,2.0,66,0.00,,,0.00,Wunderground v.1.15,2013-06-24 20:00:00,
2013-06-24 16:10:00,81.8,68.9,30.05,South,188,0.0,0.0,65,0.00,,,0.00,Wunderground v.1.15,2013-06-24 20:10:00,
2013-06-24 16:20:00,82.2,68.3,30.05,WSW,239,1.0,1.0,63,0.00,,,0.00,Wunderground v.1.15,2013-06-24 20:20:00,
2013-06-24 16:40:00,79.9,68.4,30.05,SSW,208,0.0,0.0,68,0.00,,,0.00,Wunderground v.1.15,2013-06-24 20:40:00,
2013-06-24 16:50:00,81.2,70.1,30.05,SW,229,0.0,0.0,69,0.00,,,0.00,Wunderground v.1.15,2013-06-24 20:50:00,
2013-06-24 17:00:00,81.8,68.0,30.05,SSW,201,2.0,2.0,63,0.00,,,0.00,Wunderground v.1.15,2013-06-24 21:00:00,
2013-06-24 17:10:00,81.8,68.4,30.04,SSW,193,1.0,1.0,64,0.00,,,0.00,Wunderground v.1.15,2013-06-24 21:10:00,
2013-06-24 17:15:00,82.4,68.5,30.04,WSW,244,1.0,1.0,63,0.00,,,0.00,Wunderground v.1.15,2013-06-24 21:15:00,
2013-06-24 17:20:00,82.6,68.7,30.04,SW,217,2.0,2.0,63,0.00,,,0.00,Wunderground v.1.15,2013-06-24 21:20:00,
2013-06-24 17:30:00,82.4,67.1,30.04,SSW,204,2.0,2.0,60,0.00,,,0.00,Wunderground v.1.15,2013-06-24 21:30:00,
2013-06-24 17:40:00,81.6,68.7,30.04,SW,230,1.0,6.0,65,0.00,,,0.00,Wunderground v.1.15,2013-06-24 21:40:00,
2013-06-24 17:50:00,81.1,68.7,30.04,SW,232,2.0,3.0,66,0.00,,,0.00,Wunderground v.1.15,2013-06-24 21:50:00,
2013-06-24 18:00:00,80.5,69.0,30.04,WNW,303,1.0,1.0,68,0.00,,,0.00,Wunderground v.1.15,2013-06-24 22:00:00,
2013-06-24 18:10:00,78.6,68.0,30.05,WNW,301,1.0,1.0,70,0.00,,,0.00,Wunderground v.1.15,2013-06-24 22:10:00,
2013-06-24 18:20:00,77.7,66.7,30.05,WNW,301,0.0,0.0,69,0.00,,,0.00,Wunderground v.1.15,2013-06-24 22:20:00,
2013-06-24 18:30:00,77.6,66.6,30.05,WNW,301,0.0,0.0,69,0.00,,,0.00,Wunderground v.1.15,2013-06-24 22:30:00,
2013-06-24 18:40:00,77.7,66.7,30.05,WNW,301,0.0,0.0,69,0.00,,,0.00,Wunderground v.1.15,2013-06-24 22:40:00,
2013-06-24 18:50:00,77.7,66.7,30.05,WNW,301,0.0,0.0,69,0.00,,,0.00,Wunderground v.1.15,2013-06-24 22:50:00,
2013-06-24 19:00:00,77.7,67.1,30.05,WNW,301,0.0,0.0,70,0.00,,,0.00,Wunderground v.1.15,2013-06-24 23:00:00,
2013-06-24 19:15:00,77.0,67.7,30.05,WNW,301,0.0,0.0,73,0.00,,,0.00,Wunderground v.1.15,2013-06-24 23:15:00,
2013-06-24 19:20:00,76.8,67.5,30.05,WNW,301,0.0,0.0,73,0.00,,,0.00,Wunderground v.1.15,2013-06-24 23:20:00,
2013-06-24 19:30:00,76.7,67.8,30.05,WNW,301,0.0,0.0,74,0.00,,,0.00,Wunderground v.1.15,2013-06-24 23:30:00,
2013-06-24 19:35:00,76.5,67.6,30.05,WNW,301,0.0,0.0,74,0.00,,,0.00,Wunderground v.1.15,2013-06-24 23:35:00,
2013-06-24 19:40:00,76.5,67.2,30.04,WNW,301,0.0,0.0,73,0.00,,,0.00,Wunderground v.1.15,2013-06-24 23:40:00,
2013-06-24 19:50:00,76.5,67.6,30.05,WNW,301,0.0,0.0,74,0.00,,,0.00,Wunderground v.1.15,2013-06-24 23:50:00,
2013-06-24 19:55:00,76.5,68.0,30.04,WNW,301,0.0,0.0,75,0.00,,,0.00,Wunderground v.1.15,2013-06-24 23:55:00,
2013-06-24 20:05:00,76.3,68.2,30.05,WNW,301,0.0,0.0,76,0.00,,,0.00,Wunderground v.1.15,2013-06-25 00:05:00,
2013-06-24 20:15:00,76.0,67.5,30.05,WNW,301,0.0,0.0,75,0.00,,,0.00,Wunderground v.1.15,2013-06-25 00:15:00,
2013-06-24 20:20:00,75.8,67.7,30.05,WNW,301,0.0,0.0,76,0.00,,,0.00,Wunderground v.1.15,2013-06-25 00:20:00,
2013-06-24 20:30:00,75.6,67.5,30.05,WNW,301,0.0,0.0,76,0.00,,,0.00,Wunderground v.1.15,2013-06-25 00:30:00,
2013-06-24 20:40:00,75.1,67.8,30.06,WNW,301,0.0,0.0,78,0.00,,,0.00,Wunderground v.1.15,2013-06-25 00:40:00,
2013-06-24 20:50:00,74.6,67.3,30.05,WNW,301,0.0,0.0,78,0.00,,,0.00,Wunderground v.1.15,2013-06-25 00:50:00,
2013-06-24 21:00:00,73.9,67.0,30.05,WNW,301,0.0,0.0,79,0.00,,,0.00,Wunderground v.1.15,2013-06-25 01:00:00,
2013-06-24 21:05:00,73.5,66.9,30.05,WNW,301,0.0,0.0,80,0.00,,,0.00,Wunderground v.1.15,2013-06-25 01:05:00,
2013-06-24 21:10:00,73.0,66.5,30.05,WNW,301,0.0,0.0,80,0.00,,,0.00,Wunderground v.1.15,2013-06-25 01:10:00,
2013-06-24 21:20:00,72.3,66.5,30.05,WNW,301,0.0,0.0,82,0.00,,,0.00,Wunderground v.1.15,2013-06-25 01:20:00,
2013-06-24 21:30:00,71.5,66.4,30.05,WNW,301,0.0,0.0,84,0.00,,,0.00,Wunderground v.1.15,2013-06-25 01:30:00,
2013-06-24 21:45:00,70.3,65.6,30.05,WNW,301,0.0,0.0,85,0.00,,,0.00,Wunderground v.1.15,2013-06-25 01:45:00,
2013-06-24 21:50:00,70.1,65.7,30.06,WNW,301,0.0,0.0,86,0.00,,,0.00,Wunderground v.1.15,2013-06-25 01:50:00,
2013-06-24 22:00:00,69.4,65.4,30.06,WNW,301,0.0,0.0,87,0.00,,,0.00,Wunderground v.1.15,2013-06-25 02:00:00,
2013-06-24 22:05:00,69.1,65.1,30.07,WNW,301,0.0,0.0,87,0.00,,,0.00,Wunderground v.1.15,2013-06-25 02:05:00,
2013-06-24 22:10:00,68.8,65.4,30.07,WNW,301,0.0,0.0,89,0.00,,,0.00,Wunderground v.1.15,2013-06-25 02:10:00,
2013-06-24 22:25:00,68.4,65.7,30.08,WNW,301,0.0,0.0,91,0.00,,,0.00,Wunderground v.1.15,2013-06-25 02:25:00,
2013-06-24 22:30:00,68.3,65.6,30.08,WNW,301,0.0,0.0,91,0.00,,,0.00,Wunderground v.1.15,2013-06-25 02:30:00,
2013-06-24 22:40:00,67.9,65.2,30.08,WNW,301,0.0,0.0,91,0.00,,,0.00,Wunderground v.1.15,2013-06-25 02:40:00,
2013-06-24 22:50:00,67.6,65.2,30.09,WNW,301,0.0,0.0,92,0.00,,,0.00,Wunderground v.1.15,2013-06-25 02:50:00,
2013-06-24 23:00:00,67.4,65.3,30.09,WNW,301,0.0,0.0,93,0.00,,,0.00,Wunderground v.1.15,2013-06-25 03:00:00,
2013-06-24 23:10:00,67.1,65.0,30.10,WNW,301,0.0,0.0,93,0.00,,,0.00,Wunderground v.1.15,2013-06-25 03:10:00,
2013-06-24 23:20:00,66.8,64.7,30.10,WNW,301,0.0,0.0,93,0.00,,,0.00,Wunderground v.1.15,2013-06-25 03:20:00,
2013-06-24 23:25:00,66.6,64.8,30.09,WNW,301,0.0,0.0,94,0.00,,,0.00,Wunderground v.1.15,2013-06-25 03:25:00,
2013-06-24 23:40:00,66.3,64.5,30.09,WNW,301,0.0,0.0,94,0.00,,,0.00,Wunderground v.1.15,2013-06-25 03:40:00,
2013-06-24 23:50:00,66.1,64.6,30.09,WNW,301,0.0,0.0,95,0.00,,,0.00,Wunderground v.1.15,2013-06-25 03:50:00,
2013-06-24 23:55:00,66.1,64.6,30.09,WNW,301,0.0,0.0,95,0.00,,,0.00,Wunderground v.1.15,2013-06-25 03:55:00,